User: anonymous   Login
Location: Unspecified
(0.0000°N, 0.0000°E)
Time: 00:08:48
(UTC+01:00)
Language:

Meteor 1-31 Rocket - Orbit

View from above orbital plane
View from above orbital plane
View from above satellite
View from above satellite

Ground track
Ground track

The orbit data is extracted from the following two-line orbital elements,

1 12586U 81065B   16044.89530839  .00002085  00000-0  13450-3 0  9993
2 12586  97.4479  32.9124 0021272  82.2181 278.1462 15.09177802882683
Epoch (UTC): 13 February 2016 21:29:14
Eccentricity: 0.0021272
inclination: 97.4479°
perigee height: 524 km
apogee height: 553 km
right ascension of ascending node: 32.9124°
argument of perigee: 82.2181°
revolutions per day: 15.09177802
mean anomaly at epoch: 278.1462°
orbit number at epoch: 88268

The dashed part of the orbit path shows where the satellite is in the earth's shadow,  

DLR